GFSMW_700_temp_048.txt.gz
Temp
6 5 5 4 4 4 4 3 3 3 2 2 2 0 1 1 1 0 0 -0 -1 -1 -1 -1 -1 -1 -2 -2 -2 -2 -2 -2 -2 -2 -3 -3 -3 -2 -3 -3 -3 -4 -4
6 5 5 5 4 4 4 4 3 2 2 1 0 0 0 0 -0 -1 -1 -1 -1 -1 -1 -1 -2 -2 -2 -2 -3 -3 -3 -3 -4 -4 -4 -5 -5 -7 -7 -5 -5 -5 -5
6 5 5 5 5 4 4 3 2 2 1 1 0 0 -0 -1 -1 -2 -2 -2 -2 -2 -2 -2 -2 -3 -3 -4 -4 -4 -5 -5 -5 -6 -6 -6 -7 -7 -7 -8 -9 -7 -7
5 5 5 4 4 4 3 2 1 1 1 0 -0 -1 -2 -2 -2 -2 -2 -2 -2 -2 -3 -3 -3 -4 -4 -5 -5 -6 -6 -6 -7 -7 -8 -9 -9 -9 -9 -10 -10 -11 -11
5 5 4 3 3 2 2 2 1 1 0 -0 -1 -1 -2 -2 -3 -2 -2 -2 -2 -3 -3 -4 -4 -5 -6 -7 -7 -7 -8 -8 -9 -9 -10 -12 -11 -13 -12 -11 -11 -13 -13
4 4 3 3 2 1 1 1 0 -0 -1 -1 -1 -2 -2 -2 -2 -2 -2 -2 -3 -4 -4 -5 -6 -7 -7 -7 -8 -8 -9 -10 -11 -12 -12 -12 -13 -13 -13 -13 -13 -13 -12
3 3 2 2 1 1 1 1 -0 -1 -1 -1 -2 -2 -2 -2 -3 -3 -3 -4 -4 -5 -6 -6 -6 -7 -8 -8 -10 -11 -12 -12 -12 -12 -12 -12 -13 -13 -14 -14 -14 -14 -12
2 2 2 2 1 1 1 0 -0 -1 -1 -2 -2 -2 -2 -3 -3 -4 -4 -5 -5 -5 -6 -6 -7 -7 -9 -10 -11 -11 -12 -12 -12 -12 -13 -13 -13 -14 -14 -14 -15 -14 -13
2 2 2 2 1 1 0 -0 -1 -1 -2 -2 -2 -2 -2 -3 -3 -4 -5 -5 -5 -6 -7 -7 -8 -9 -10 -11 -11 -11 -12 -12 -12 -13 -13 -13 -14 -14 -15 -16 -17 -17 -14
2 2 2 1 1 0 0 -0 -1 -2 -2 -2 -3 -2 -3 -4 -5 -5 -5 -5 -6 -7 -7 -8 -9 -9 -10 -11 -12 -12 -12 -13 -13 -13 -14 -14 -15 -15 -15 -17 -17 -17 -17
2 2 2 1 1 0 -0 -1 -1 -2 -2 -2 -3 -3 -4 -5 -5 -5 -5 -6 -7 -7 -8 -9 -9 -10 -11 -12 -12 -12 -13 -13 -14 -14 -14 -14 -15 -15 -15 -17 -17 -17 -18
2 2 1 1 1 0 -1 -1 -1 -2 -2 -3 -4 -5 -5 -5 -5 -6 -6 -7 -7 -8 -9 -9 -10 -11 -11 -12 -13 -13 -14 -14 -14 -14 -15 -15 -15 -15 -15 -16 -17 -18 -18
2 1 1 0 0 -1 -1 -2 -2 -2 -3 -4 -5 -5 -5 -5 -6 -6 -7 -8 -8 -9 -10 -10 -11 -11 -12 -12 -13 -13 -13 -14 -14 -15 -15 -15 -15 -15 -16 -16 -16 -17 -17
1 1 1 0 -1 -1 -2 -2 -3 -3 -4 -5 -5 -6 -6 -6 -6 -7 -8 -9 -9 -10 -10 -11 -12 -12 -13 -13 -13 -14 -14 -14 -15 -15 -15 -15 -16 -16 -16 -16 -17 -17 -17
1 0 -0 -1 -1 -2 -2 -3 -3 -3 -4 -6 -6 -6 -6 -6 -7 -8 -9 -10 -10 -11 -11 -11 -12 -13 -13 -13 -14 -14 -14 -15 -15 -15 -15 -16 -16 -16 -17 -17 -17 -17 -17
1 -0 -1 -2 -2 -3 -3 -3 -4 -4 -6 -6 -6 -6 -7 -7 -8 -9 -10 -10 -11 -11 -11 -12 -13 -13 -13 -14 -14 -14 -15 -15 -15 -15 -16 -16 -16 -17 -17 -17 -17 -17 -17
-0 -1 -2 -2 -3 -3 -3 -3 -5 -6 -6 -6 -6 -7 -7 -8 -9 -10 -10 -11 -11 -11 -12 -12 -13 -13 -14 -14 -15 -15 -15 -15 -15 -16 -16 -16 -17 -17 -17 -17 -17 -17 -18
-1 -2 -2 -3 -3 -3 -4 -5 -6 -7 -7 -7 -7 -7 -8 -9 -9 -10 -11 -11 -12 -12 -12 -13 -13 -14 -14 -15 -15 -15 -15 -15 -16 -16 -16 -17 -17 -17 -17 -17 -17 -18 -18
-2 -2 -3 -3 -4 -4 -5 -6 -7 -7 -7 -7 -8 -8 -9 -9 -10 -11 -11 -12 -12 -12 -13 -13 -14 -14 -15 -15 -15 -15 -15 -15 -16 -16 -16 -17 -17 -17 -17 -17 -17 -18 -18
-2 -3 -4 -3 -4 -5 -6 -8 -8 -8 -7 -8 -8 -9 -9 -10 -11 -11 -12 -12 -12 -13 -13 -13 -14 -15 -15 -15 -15 -16 -16 -16 -16 -16 -17 -17 -17 -17 -17 -17 -18 -18 -18
-3 -3 -3 -3 -4 -6 -8 -9 -9 -8 -8 -8 -9 -9 -10 -11 -11 -12 -12 -12 -13 -13 -13 -14 -14 -15 -16 -16 -16 -16 -16 -16 -16 -16 -17 -17 -17 -18 -18 -18 -18 -18 -18
-4 -4 -4 -4 -6 -7 -9 -9 -8 -8 -9 -9 -9 -10 -11 -11 -12 -12 -13 -13 -13 -13 -14 -14 -15 -15 -16 -16 -16 -16 -16 -16 -16 -16 -17 -17 -17 -18 -18 -18 -18 -18 -18
-4 -4 -5 -6 -8 -9 -10 -9 -9 -9 -9 -9 -10 -11 -11 -12 -13 -13 -13 -13 -14 -14 -14 -15 -15 -16 -16 -16 -16 -16 -16 -16 -16 -17 -17 -17 -17 -18 -18 -18 -18 -18 -18
-4 -5 -7 -8 -10 -10 -9 -9 -9 -9 -10 -10 -11 -12 -12 -13 -13 -13 -13 -14 -14 -14 -15 -15 -15 -16 -16 -16 -16 -16 -16 -16 -16 -17 -17 -17 -17 -18 -18 -18 -18 -19 -19
-6 -8 -9 -10 -10 -9 -9 -9 -10 -10 -11 -11 -12 -12 -13 -13 -13 -14 -14 -14 -14 -15 -15 -15 -15 -16 -16 -16 -16 -16 -16 -16 -16 -17 -17 -17 -17 -18 -18 -18 -18 -19 -19
-8 -9 -11 -11 -10 -10 -10 -10 -10 -11 -12 -12 -13 -13 -13 -13 -13 -14 -14 -14 -15 -15 -15 -15 -16 -16 -16 -16 -16 -16 -16 -16 -17 -17 -17 -17 -17 -18 -18 -18 -18 -19 -19

GFSMW_700_temp_051.txt.gz
Temp
6 5 5 5 4 4 4 4 3 3 3 2 2 2 1 1 1 0 0 0 0 -0 -0 -1 -0 -0 -1 -1 -1 -1 -2 -2 -2 -2 -2 -1 -2 -3 -4 -5 -6 -5 -5
6 5 5 5 5 4 4 4 4 3 3 2 2 1 1 1 0 -0 -1 -1 -1 -1 -1 -1 -2 -2 -2 -2 -3 -3 -3 -3 -3 -3 -3 -3 -3 -3 -7 -6 -7 -8 -8
5 5 5 6 5 5 4 4 3 3 2 1 0 0 0 -0 -1 -1 -2 -2 -2 -2 -2 -2 -2 -3 -3 -3 -3 -4 -4 -4 -4 -5 -5 -6 -6 -7 -7 -7 -8 -9 -10
6 6 6 6 5 4 4 4 3 2 1 1 0 -1 -1 -2 -2 -2 -2 -3 -2 -2 -2 -3 -3 -3 -4 -4 -4 -4 -5 -6 -6 -7 -9 -10 -11 -11 -10 -11 -11 -9 -11
5 6 5 5 4 4 3 3 2 2 1 1 -0 -1 -1 -2 -2 -2 -2 -3 -2 -2 -2 -3 -4 -4 -5 -5 -5 -6 -7 -8 -9 -11 -10 -10 -12 -12 -12 -12 -12 -12 -12
5 5 4 4 3 3 3 2 1 1 1 -0 -1 -1 -2 -2 -2 -3 -3 -3 -3 -4 -4 -5 -5 -5 -6 -8 -9 -8 -9 -10 -11 -11 -11 -11 -11 -12 -12 -12 -12 -12 -12
4 4 4 3 3 2 2 1 1 1 0 -0 -1 -2 -2 -3 -2 -2 -3 -3 -4 -4 -5 -5 -5 -6 -6 -7 -8 -9 -10 -11 -11 -11 -11 -12 -12 -12 -13 -13 -13 -13 -12
4 3 3 2 2 2 1 1 1 0 -0 -1 -1 -2 -2 -2 -2 -3 -3 -4 -4 -5 -5 -5 -6 -6 -7 -9 -10 -9 -10 -11 -11 -11 -11 -12 -12 -13 -13 -14 -14 -13 -13
3 2 2 2 2 2 1 1 0 -0 -0 -1 -2 -2 -3 -3 -3 -3 -4 -4 -5 -5 -5 -6 -6 -7 -8 -9 -11 -11 -11 -11 -12 -12 -12 -13 -13 -13 -14 -14 -15 -16 -15
2 1 1 2 1 1 1 1 -0 -0 -1 -2 -2 -2 -3 -3 -3 -4 -5 -5 -5 -5 -6 -6 -7 -8 -9 -9 -11 -12 -12 -12 -12 -13 -13 -13 -13 -14 -14 -14 -15 -16 -16
1 1 0 1 2 1 1 1 -0 -1 -1 -2 -2 -3 -3 -4 -4 -5 -5 -5 -5 -6 -7 -7 -8 -9 -9 -10 -11 -11 -12 -12 -13 -13 -13 -14 -14 -14 -14 -15 -16 -17 -17
1 0 2 2 2 1 1 0 -0 -1 -2 -2 -2 -2 -3 -4 -5 -5 -5 -6 -6 -7 -8 -8 -9 -9 -10 -11 -11 -12 -12 -13 -13 -13 -14 -14 -15 -15 -15 -16 -17 -17 -17
2 3 2 2 1 1 1 -0 -1 -1 -2 -2 -3 -3 -4 -5 -6 -6 -6 -6 -7 -8 -8 -9 -9 -10 -11 -11 -12 -12 -13 -13 -13 -14 -14 -14 -15 -15 -15 -16 -16 -16 -17
3 2 2 2 1 1 0 -1 -1 -2 -2 -3 -4 -4 -5 -6 -6 -6 -6 -7 -8 -8 -9 -9 -10 -11 -11 -12 -12 -13 -13 -13 -14 -14 -14 -15 -15 -15 -15 -16 -16 -16 -17
2 2 2 1 1 0 -1 -1 -2 -2 -3 -4 -4 -6 -6 -6 -6 -6 -7 -8 -8 -9 -10 -10 -11 -11 -12 -12 -13 -13 -14 -14 -15 -15 -15 -15 -15 -15 -16 -16 -16 -17 -17
2 1 1 1 0 -1 -2 -2 -2 -3 -3 -5 -6 -6 -6 -6 -7 -7 -8 -8 -9 -10 -10 -11 -12 -12 -13 -13 -14 -14 -15 -15 -15 -15 -15 -15 -16 -16 -16 -16 -16 -17 -17
1 1 0 -0 -1 -2 -2 -3 -3 -3 -5 -6 -7 -7 -7 -7 -8 -8 -9 -9 -10 -10 -11 -12 -12 -13 -14 -14 -15 -15 -15 -16 -15 -15 -15 -15 -16 -16 -16 -17 -17 -17 -17
1 1 -0 -1 -2 -2 -3 -3 -3 -4 -5 -7 -8 -8 -7 -8 -8 -9 -9 -10 -11 -11 -12 -12 -12 -13 -15 -14 -15 -15 -15 -16 -15 -15 -15 -16 -16 -16 -17 -17 -17 -17 -17
0 -0 -1 -2 -2 -3 -3 -3 -4 -5 -7 -8 -9 -8 -8 -8 -9 -9 -10 -11 -11 -12 -12 -13 -13 -13 -14 -14 -15 -16 -16 -16 -16 -16 -16 -16 -16 -17 -17 -17 -17 -17 -17
-1 -1 -2 -2 -3 -3 -3 -4 -6 -7 -8 -10 -10 -9 -8 -9 -9 -10 -11 -12 -12 -12 -12 -13 -14 -14 -15 -15 -15 -16 -16 -16 -16 -16 -16 -16 -16 -17 -17 -17 -17 -17 -18
-2 -2 -3 -3 -4 -4 -4 -5 -7 -9 -9 -10 -9 -9 -9 -9 -10 -11 -11 -12 -12 -12 -13 -13 -14 -14 -15 -15 -15 -16 -16 -16 -16 -16 -16 -16 -16 -17 -17 -17 -17 -18 -18
-3 -3 -3 -3 -3 -4 -6 -7 -10 -11 -11 -10 -9 -9 -10 -10 -11 -11 -12 -13 -13 -13 -13 -14 -14 -15 -15 -15 -15 -16 -16 -16 -16 -16 -16 -16 -16 -17 -17 -17 -17 -18 -18
-3 -3 -3 -4 -5 -6 -7 -9 -11 -11 -10 -9 -9 -10 -11 -11 -12 -12 -13 -13 -13 -14 -14 -14 -14 -15 -15 -16 -15 -16 -16 -16 -16 -16 -16 -16 -16 -17 -17 -17 -17 -18 -18
-4 -4 -4 -6 -7 -8 -8 -10 -11 -10 -10 -10 -10 -11 -11 -12 -12 -13 -13 -13 -14 -14 -14 -14 -14 -15 -15 -16 -16 -16 -16 -16 -16 -16 -16 -16 -16 -17 -17 -17 -17 -18 -18
-4 -5 -7 -8 -8 -9 -10 -10 -10 -10 -10 -10 -11 -11 -12 -12 -13 -13 -13 -14 -14 -14 -15 -15 -15 -15 -15 -16 -16 -16 -16 -16 -16 -16 -16 -16 -17 -17 -17 -17 -18 -18 -18
-7 -7 -8 -9 -11 -10 -10 -10 -10 -10 -10 -11 -12 -12 -13 -13 -13 -13 -13 -14 -14 -15 -15 -15 -15 -15 -16 -16 -16 -16 -16 -16 -17 -17 -17 -17 -17 -17 -17 -17 -17 -18 -18

GFSMW_700_temp_054.txt.gz
Temp
5 6 6 5 4 3 5 5 4 4 3 3 3 2 2 2 2 1 1 0 1 1 0 -0 -0 -1 -0 -0 -0 -0 -1 -1 -1 -1 -1 -1 -1 -2 -3 -4 -5 -6 -5
6 6 5 5 4 4 5 4 4 3 3 3 2 2 1 1 1 1 0 0 -0 -0 -1 -1 -1 -1 -1 -2 -2 -2 -2 -2 -2 -2 -2 -2 -2 -2 -3 -4 -5 -6 -7
6 6 5 5 5 5 4 4 4 3 3 3 2 2 1 0 -0 -0 -1 -1 -2 -2 -2 -2 -1 -2 -2 -2 -2 -2 -2 -3 -3 -4 -4 -4 -4 -4 -5 -5 -6 -7 -8
4 5 6 6 5 5 5 4 4 3 3 2 1 1 -1 -1 -2 -2 -2 -2 -2 -2 -2 -2 -2 -2 -2 -2 -3 -3 -4 -4 -5 -5 -6 -7 -8 -8 -7 -8 -9 -10 -9
4 4 5 6 6 5 4 4 3 2 2 1 1 -0 -1 -2 -2 -2 -2 -2 -3 -3 -2 -2 -2 -2 -3 -4 -5 -5 -5 -6 -7 -8 -9 -10 -10 -11 -11 -11 -11 -11 -12
4 4 4 4 5 4 3 3 2 2 1 1 0 -1 -1 -1 -2 -2 -2 -3 -3 -3 -3 -4 -4 -5 -5 -6 -6 -6 -6 -7 -8 -9 -10 -11 -11 -11 -11 -11 -12 -12 -11
3 3 4 4 4 3 3 2 2 2 1 1 0 -0 -1 -1 -2 -3 -3 -3 -3 -3 -4 -4 -5 -5 -5 -6 -6 -7 -9 -8 -9 -10 -10 -11 -11 -12 -12 -12 -12 -12 -12
3 2 2 3 3 3 2 2 2 1 1 1 0 -0 -1 -1 -2 -3 -4 -3 -4 -4 -4 -5 -5 -5 -6 -7 -7 -8 -9 -9 -10 -10 -11 -11 -12 -12 -13 -13 -13 -13 -12
2 2 1 1 3 2 2 2 1 1 1 1 -0 -1 -1 -2 -2 -3 -3 -3 -4 -4 -5 -5 -5 -6 -7 -7 -8 -9 -9 -10 -10 -11 -12 -12 -12 -13 -13 -14 -14 -14 -13
3 2 1 1 1 2 2 2 1 0 1 0 -0 -1 -2 -2 -2 -3 -3 -4 -4 -5 -5 -5 -6 -7 -7 -8 -9 -9 -10 -11 -11 -12 -12 -13 -13 -13 -14 -14 -14 -14 -15
3 2 1 1 0 -0 1 2 1 1 0 0 -1 -1 -2 -2 -3 -3 -4 -4 -5 -5 -5 -6 -7 -7 -8 -9 -9 -10 -11 -12 -12 -12 -13 -13 -13 -14 -14 -14 -14 -14 -15
2 2 1 1 1 1 2 1 0 0 0 -1 -2 -2 -2 -2 -3 -4 -5 -5 -6 -6 -6 -7 -7 -8 -9 -10 -10 -11 -12 -12 -12 -13 -13 -13 -14 -15 -15 -15 -14 -15 -15
2 2 1 1 1 1 1 1 1 0 -1 -1 -2 -2 -2 -3 -4 -5 -6 -6 -6 -7 -7 -8 -8 -9 -9 -11 -11 -11 -12 -12 -13 -13 -14 -14 -14 -14 -14 -15 -15 -15 -16
3 2 1 1 2 1 1 1 0 -1 -2 -2 -2 -3 -3 -4 -5 -6 -6 -7 -7 -7 -8 -8 -8 -10 -10 -11 -11 -12 -12 -13 -13 -14 -15 -15 -15 -14 -15 -15 -15 -15 -16
2 2 1 1 1 1 1 0 -0 -1 -2 -2 -3 -3 -4 -5 -6 -7 -8 -8 -7 -8 -8 -9 -10 -11 -12 -12 -12 -12 -14 -14 -15 -15 -16 -15 -15 -15 -15 -15 -15 -16 -16
2 1 0 -1 -1 0 0 -1 -1 -2 -2 -3 -3 -4 -5 -7 -8 -8 -9 -8 -8 -9 -9 -9 -11 -12 -12 -12 -13 -13 -14 -15 -16 -16 -16 -15 -15 -15 -14 -15 -16 -16 -17
1 -0 -1 -2 -1 -1 -1 -1 -3 -2 -3 -3 -4 -5 -8 -9 -9 -10 -9 -8 -9 -9 -10 -10 -12 -12 -12 -13 -13 -14 -15 -16 -16 -16 -16 -15 -15 -15 -15 -16 -17 -17 -17
0 -0 -0 -1 -1 -1 -2 -2 -3 -3 -3 -4 -6 -7 -9 -10 -10 -10 -9 -9 -9 -10 -11 -11 -12 -12 -13 -13 -13 -15 -15 -16 -16 -16 -16 -16 -15 -15 -16 -16 -16 -17 -17
0 0 -0 -1 -1 -1 -2 -3 -3 -4 -4 -4 -6 -8 -9 -11 -11 -9 -9 -9 -10 -11 -12 -12 -13 -13 -13 -13 -14 -15 -16 -16 -16 -16 -16 -16 -16 -16 -16 -16 -16 -17 -17
-0 -1 -1 -2 -2 -2 -3 -4 -4 -4 -5 -6 -8 -9 -11 -11 -9 -9 -9 -9 -11 -12 -12 -13 -13 -13 -14 -14 -14 -15 -16 -16 -16 -16 -16 -16 -16 -16 -16 -16 -16 -17 -17
-1 -1 -2 -2 -3 -3 -3 -4 -4 -8 -8 -8 -8 -10 -10 -9 -9 -9 -10 -10 -11 -12 -12 -13 -13 -14 -14 -14 -15 -15 -16 -16 -16 -16 -16 -16 -16 -16 -16 -16 -17 -17 -17
-2 -2 -3 -3 -3 -3 -4 -5 -7 -8 -8 -10 -9 -9 -9 -9 -10 -10 -11 -12 -12 -13 -13 -13 -14 -14 -14 -15 -15 -15 -16 -16 -16 -16 -16 -16 -16 -16 -16 -16 -17 -17 -17
-2 -3 -3 -4 -4 -4 -6 -8 -8 -9 -10 -9 -9 -9 -9 -10 -10 -11 -12 -13 -13 -13 -13 -14 -14 -14 -15 -15 -15 -15 -16 -16 -16 -16 -16 -16 -16 -16 -16 -16 -17 -17 -17
-3 -4 -4 -5 -5 -7 -8 -8 -10 -10 -9 -9 -9 -10 -10 -10 -11 -12 -13 -13 -13 -13 -14 -14 -14 -15 -15 -15 -16 -16 -16 -16 -16 -16 -17 -16 -16 -16 -17 -16 -16 -16 -17
-5 -6 -5 -7 -7 -8 -9 -9 -9 -9 -9 -10 -10 -11 -11 -11 -12 -12 -13 -14 -14 -14 -14 -15 -15 -15 -16 -16 -16 -16 -16 -16 -16 -16 -16 -17 -17 -17 -17 -17 -17 -17 -17
-6 -7 -8 -8 -9 -9 -9 -10 -10 -10 -10 -10 -11 -11 -12 -12 -13 -13 -13 -14 -14 -14 -14 -15 -15 -15 -16 -16 -16 -16 -16 -16 -17 -16 -17 -17 -17 -17 -17 -17 -17 -17 -17

GFSMW_700_temp_057.txt.gz
Temp
5 4 4 4 5 6 6 5 4 3 4 3 3 3 3 2 2 2 1 1 1 -0 0 0 1 1 0 -0 -0 0 0 -0 -0 -0 -0 -1 -1 -1 -1 -2 -2 -3 -5
7 6 6 4 5 5 5 5 4 3 3 3 3 3 2 2 1 1 1 0 0 -0 0 0 -0 -0 -1 -1 -1 -1 -1 -1 -1 -1 -1 -1 -1 -1 -2 -3 -3 -4 -6
7 7 6 5 5 5 5 4 4 3 3 3 3 3 2 2 1 0 -0 -1 -0 -1 -1 -1 -1 -1 -1 -1 -2 -2 -2 -2 -2 -3 -3 -3 -2 -3 -3 -4 -4 -5 -6
5 5 6 5 5 5 4 4 4 3 3 3 3 2 1 1 0 0 -0 -1 -1 -2 -2 -2 -2 -2 -2 -2 -2 -2 -2 -2 -3 -4 -4 -5 -6 -6 -5 -7 -7 -8 -8
5 5 5 5 5 5 5 4 4 4 3 4 3 1 1 1 0 -1 -2 -3 -3 -3 -3 -3 -2 -2 -2 -2 -3 -3 -4 -4 -5 -5 -6 -6 -7 -8 -8 -8 -9 -10 -11
5 4 4 5 6 5 5 4 4 4 3 2 1 1 0 -0 -1 -2 -3 -3 -4 -3 -4 -3 -3 -3 -4 -4 -5 -6 -6 -6 -6 -7 -7 -8 -9 -10 -11 -11 -11 -11 -11
5 4 4 5 5 5 4 4 3 3 2 1 1 1 -0 -1 -1 -1 -2 -2 -3 -4 -3 -3 -4 -4 -5 -5 -5 -6 -6 -7 -7 -8 -8 -10 -10 -11 -12 -12 -12 -12 -12
5 5 5 5 5 4 3 3 2 2 2 1 1 0 -0 -1 -2 -2 -2 -3 -3 -3 -3 -4 -5 -5 -5 -5 -6 -6 -7 -7 -8 -9 -9 -10 -11 -12 -12 -12 -13 -13 -12
4 4 4 5 4 3 2 2 2 1 2 1 1 0 -1 -1 -2 -2 -3 -2 -3 -3 -4 -5 -5 -5 -6 -6 -6 -7 -8 -8 -9 -10 -10 -11 -12 -12 -13 -13 -14 -14 -14
4 4 3 4 3 3 2 1 1 1 1 1 1 -0 -1 -1 -2 -2 -3 -3 -3 -4 -5 -5 -5 -6 -6 -7 -7 -8 -8 -9 -10 -11 -11 -12 -12 -13 -13 -14 -14 -15 -14
4 3 3 2 1 0 0 1 1 0 0 0 -0 -1 -1 -1 -2 -3 -3 -3 -4 -5 -5 -6 -6 -6 -7 -7 -8 -9 -10 -11 -11 -12 -12 -13 -13 -13 -14 -14 -14 -15 -15
4 3 2 1 1 0 0 0 -0 0 0 -0 -1 -1 -2 -2 -3 -3 -4 -4 -5 -6 -6 -7 -7 -7 -7 -8 -9 -10 -11 -11 -12 -12 -13 -13 -14 -14 -14 -14 -15 -15 -15
4 3 2 1 1 1 0 -0 -0 -0 -0 -1 -1 -2 -2 -3 -3 -4 -5 -7 -7 -8 -8 -8 -8 -7 -8 -9 -10 -11 -11 -12 -12 -13 -13 -14 -14 -14 -14 -15 -15 -15 -15
4 3 2 2 1 1 0 0 -0 -0 -1 -1 -2 -2 -3 -3 -4 -6 -8 -8 -9 -9 -9 -9 -8 -8 -9 -10 -11 -11 -12 -12 -13 -14 -14 -14 -15 -15 -15 -15 -15 -15 -15
4 3 3 2 1 1 1 1 0 -1 -2 -3 -2 -3 -3 -4 -5 -6 -9 -10 -9 -10 -10 -9 -8 -9 -10 -11 -12 -12 -12 -13 -14 -15 -15 -15 -15 -15 -15 -15 -15 -15 -15
3 3 3 2 2 1 1 0 -0 -1 -2 -3 -3 -3 -4 -4 -5 -7 -8 -8 -9 -10 -9 -9 -9 -10 -11 -12 -12 -13 -13 -14 -15 -15 -15 -15 -16 -16 -15 -15 -15 -15 -15
3 2 2 2 1 -0 0 -0 -1 -2 -2 -3 -4 -4 -5 -6 -7 -8 -8 -9 -9 -9 -9 -9 -10 -11 -12 -12 -13 -13 -14 -14 -15 -15 -15 -16 -16 -16 -16 -16 -16 -16 -17
2 2 1 0 -0 -1 -2 -2 -2 -3 -4 -4 -4 -4 -5 -8 -8 -9 -9 -9 -9 -9 -10 -10 -11 -12 -12 -13 -13 -14 -14 -14 -15 -15 -16 -16 -16 -16 -16 -16 -16 -16 -16
2 1 0 -0 -1 -1 -2 -2 -3 -3 -4 -4 -5 -6 -8 -8 -10 -9 -9 -9 -9 -9 -10 -11 -12 -12 -12 -13 -14 -14 -14 -15 -15 -15 -16 -16 -16 -16 -16 -16 -16 -16 -16
0 0 -0 -1 -1 -2 -2 -3 -3 -4 -4 -5 -7 -8 -8 -10 -9 -9 -9 -10 -10 -10 -10 -12 -12 -13 -13 -14 -14 -14 -15 -15 -15 -16 -16 -16 -16 -16 -16 -16 -16 -16 -16
-0 -1 -1 -2 -2 -3 -3 -4 -4 -4 -6 -8 -8 -8 -9 -9 -9 -10 -10 -10 -10 -11 -11 -12 -13 -13 -14 -14 -14 -15 -15 -15 -15 -16 -16 -16 -16 -16 -16 -16 -16 -16 -16
-1 -1 -2 -3 -3 -4 -4 -4 -5 -7 -8 -8 -9 -9 -9 -10 -10 -10 -11 -11 -12 -12 -13 -13 -13 -14 -14 -14 -15 -15 -15 -15 -16 -16 -16 -16 -16 -16 -16 -16 -16 -17 -17
-2 -3 -4 -4 -5 -5 -5 -6 -7 -8 -8 -9 -9 -10 -10 -10 -10 -11 -11 -12 -12 -13 -13 -14 -14 -14 -14 -15 -15 -15 -16 -16 -16 -16 -16 -16 -17 -17 -17 -17 -17 -17 -17
-4 -5 -5 -5 -6 -6 -7 -8 -8 -8 -9 -9 -10 -10 -10 -11 -11 -11 -12 -12 -12 -13 -14 -14 -14 -14 -14 -15 -15 -16 -16 -16 -16 -16 -16 -17 -17 -17 -17 -17 -17 -17 -17
-5 -5 -6 -6 -7 -8 -8 -8 -9 -9 -9 -10 -10 -10 -11 -11 -12 -12 -12 -13 -13 -14 -14 -15 -15 -15 -15 -15 -16 -16 -16 -16 -16 -16 -16 -16 -17 -17 -17 -17 -17 -17 -17
-6 -6 -7 -8 -8 -9 -9 -10 -10 -10 -10 -10 -10 -11 -11 -12 -12 -12 -13 -13 -14 -15 -15 -15 -15 -15 -16 -16 -16 -16 -16 -16 -16 -16 -16 -17 -17 -17 -17 -17 -17 -17 -17

GFSMW_700_temp_063.txt.gz
Temp
5 4 4 5 5 5 4 4 3 3 3 3 3 3 2 2 2 2 2 2 1 1 1 0 0 -0 -1 -0 -1 -1 -0 -0 -0 -1 -1 -1 -2 -2 -2 -2 -2 -3 -3
6 6 5 6 5 5 4 3 4 3 3 3 3 3 2 2 2 2 2 1 1 0 0 -0 -1 -1 -1 -1 -1 -1 -1 -1 -1 -2 -2 -2 -2 -2 -2 -2 -2 -3 -3
6 6 6 6 6 5 5 3 3 3 3 3 3 2 2 2 2 1 1 1 -0 -0 -1 -1 -1 -1 -1 -1 -1 -1 -2 -2 -2 -3 -3 -3 -3 -3 -3 -3 -3 -4 -4
6 6 6 5 5 5 5 4 4 3 3 3 3 2 2 2 1 1 0 -0 -1 -1 -1 -1 -1 -1 -1 -2 -2 -2 -2 -3 -3 -3 -4 -4 -4 -4 -4 -4 -4 -5 -6
7 6 6 5 4 5 4 3 3 3 3 3 2 2 2 1 1 0 -0 -1 -1 -1 -1 -2 -2 -3 -3 -3 -3 -3 -3 -4 -4 -4 -5 -5 -5 -5 -5 -5 -6 -6 -7
7 6 6 5 4 4 3 3 3 3 3 3 2 2 1 1 0 -0 -0 -1 -1 -2 -3 -2 -2 -3 -4 -4 -3 -4 -4 -5 -5 -5 -5 -6 -6 -6 -7 -7 -7 -7 -8
7 6 6 5 4 4 3 3 3 3 3 2 2 1 1 1 0 -0 -1 -1 -2 -2 -2 -3 -3 -4 -4 -4 -4 -4 -5 -6 -6 -6 -6 -7 -7 -8 -8 -9 -9 -9 -9
6 5 5 4 3 4 3 3 3 3 3 2 1 1 1 0 -0 -1 -1 -2 -3 -3 -3 -3 -3 -3 -4 -4 -5 -6 -7 -7 -7 -7 -7 -7 -8 -9 -10 -10 -11 -11 -11
6 6 5 4 4 3 3 3 3 3 2 2 1 1 1 -1 -2 -2 -2 -2 -2 -3 -3 -4 -4 -4 -4 -5 -6 -7 -7 -8 -8 -7 -7 -8 -9 -9 -10 -11 -11 -13 -13
6 6 5 4 4 3 3 3 3 2 1 1 1 -0 -1 -2 -2 -2 -2 -2 -2 -3 -4 -4 -5 -4 -4 -6 -7 -7 -8 -8 -8 -8 -8 -9 -9 -10 -11 -12 -12 -13 -14
7 6 5 4 4 4 4 3 2 2 1 1 1 -1 -1 -1 -1 -1 -2 -2 -2 -3 -4 -4 -4 -4 -6 -6 -6 -7 -8 -8 -8 -9 -9 -10 -10 -11 -12 -13 -14 -14 -15
6 6 5 5 5 4 4 3 2 1 1 -0 0 -0 -1 -1 -1 -2 -2 -3 -3 -4 -4 -4 -4 -5 -6 -7 -7 -7 -7 -8 -9 -9 -10 -11 -12 -13 -13 -14 -15 -15 -15
6 5 5 5 4 3 3 3 2 2 1 -0 -1 -0 -1 -1 -2 -2 -2 -3 -4 -4 -5 -5 -6 -7 -7 -8 -8 -8 -8 -9 -9 -10 -11 -12 -13 -13 -14 -15 -15 -16 -16
6 5 4 4 3 3 2 2 2 1 -0 -0 -1 -2 -1 -2 -3 -4 -4 -4 -4 -5 -5 -6 -7 -8 -7 -8 -8 -9 -9 -9 -10 -11 -12 -13 -13 -14 -14 -15 -16 -16 -16
5 5 4 4 3 3 2 2 1 0 0 -0 -2 -2 -2 -3 -3 -5 -4 -4 -5 -6 -6 -7 -8 -7 -8 -8 -9 -9 -9 -10 -11 -12 -13 -13 -14 -14 -15 -16 -16 -16 -16
5 5 4 3 2 2 2 1 0 0 -0 -1 -2 -2 -3 -3 -5 -5 -5 -5 -6 -7 -8 -8 -8 -8 -8 -9 -9 -9 -10 -11 -12 -13 -13 -14 -14 -14 -15 -16 -16 -16 -16
5 4 4 3 2 2 1 0 -0 -1 -1 -2 -2 -3 -3 -4 -4 -5 -5 -6 -7 -8 -8 -8 -8 -9 -9 -9 -10 -10 -11 -12 -12 -13 -14 -14 -14 -15 -15 -15 -16 -16 -16
4 4 3 2 2 1 0 -0 -0 -1 -1 -2 -3 -3 -3 -4 -5 -5 -6 -7 -8 -8 -8 -9 -9 -9 -10 -10 -11 -11 -12 -12 -13 -14 -14 -14 -15 -15 -15 -16 -16 -16 -17
3 3 2 1 1 0 -0 -1 -1 -2 -3 -3 -4 -4 -4 -5 -5 -7 -7 -8 -9 -9 -9 -9 -9 -10 -10 -11 -11 -12 -12 -13 -14 -14 -15 -15 -15 -15 -16 -16 -16 -16 -17
2 1 0 0 -0 -1 -1 -2 -3 -3 -3 -4 -4 -5 -5 -7 -7 -8 -8 -9 -9 -9 -9 -9 -10 -10 -11 -11 -12 -12 -13 -14 -14 -15 -15 -15 -16 -16 -16 -16 -16 -17 -17
0 -1 -1 -1 -1 -2 -3 -4 -4 -4 -4 -5 -6 -6 -7 -7 -8 -9 -9 -9 -9 -9 -10 -10 -10 -11 -12 -12 -13 -13 -13 -14 -15 -15 -16 -16 -16 -16 -16 -16 -16 -17 -17
-1 -1 -1 -2 -3 -3 -4 -5 -5 -5 -5 -6 -6 -6 -7 -9 -9 -9 -9 -10 -10 -10 -10 -10 -11 -12 -12 -13 -13 -14 -14 -15 -15 -16 -16 -16 -17 -17 -17 -17 -17 -17 -17
-1 -2 -3 -4 -4 -5 -5 -5 -6 -6 -6 -6 -7 -8 -9 -9 -9 -10 -10 -10 -10 -10 -10 -11 -12 -12 -13 -14 -15 -15 -15 -15 -16 -16 -16 -16 -17 -17 -17 -17 -17 -17 -17
-2 -3 -4 -5 -5 -5 -5 -6 -6 -6 -7 -8 -9 -9 -9 -9 -10 -10 -10 -10 -10 -11 -11 -12 -13 -13 -14 -14 -16 -15 -15 -15 -15 -16 -17 -17 -17 -17 -17 -18 -18 -18 -17
-4 -4 -5 -4 -5 -5 -6 -7 -7 -8 -9 -9 -9 -9 -9 -10 -10 -10 -10 -10 -10 -11 -12 -12 -13 -15 -15 -15 -16 -16 -16 -16 -16 -16 -17 -17 -17 -17 -17 -17 -18 -18 -18
-5 -4 -4 -5 -6 -7 -7 -8 -8 -9 -9 -9 -9 -10 -10 -10 -10 -10 -10 -11 -11 -12 -12 -13 -14 -15 -16 -16 -16 -16 -16 -16 -16 -17 -17 -17 -17 -18 -18 -18 -17 -18 -18